Regional Weather Roundup
Issued by NWS

Home | Current Version | Previous Version | Text Only | Print | Product List | Glossary On
Versions: 1 2 3 4 5 6 7 8 9 10 11 12 13 14 15 16 17 18 19 20 21 22 23 24 25 26 27 28 29 30 31 32 33 34 35 36 37 38 39 40 41 42 43 44 45 46 47 48 49 50
000
ASUS45 KCYS 311510
RWRWY

WYOMING REGIONAL WEATHER ROUNDUP
NATIONAL WEATHER SERVICE CHEYENNE WY
800 AM MST SAT JAN 31 2015

NOTE:  "FAIR" INDICATES FEW OR NO CLOUDS BELOW 12,000 FEET
WITH NO SIGNIFICANT WEATHER AND/OR OBSTRUCTIONS TO VISIBILITY.

WYZ001-311600-
YELLOWSTONE NATIONAL PARK

CITY           SKY/WX    TMP DP  RH WIND       PRES   REMARKS
LK YELLOWSTONE   N/A    -12 -18  74 CALM      30.03S
W YELLOWSTONE  NOT AVBL

$$
WYZ002>013-054>058-071-098>099-311600-
NORTHERN WYOMING

CITY           SKY/WX    TMP DP  RH WIND       PRES   REMARKS
JACKSON        CLEAR      3   3 100 N6        30.04S WCI  -8
CODY           FAIR      19  16  86 CALM      29.92R
GREYBULL       FOG       24  22  91 NW6       29.96R VSB<1/4 WCI  17
WORLAND        HAZE      23  18  81 CALM      29.94F VSB<1/4
SHERIDAN       FAIR      22  16  78 W5        29.91R WCI  16
BUFFALO        FAIR      25  16  68 CALM      29.88F
GILLETTE       FAIR      26  21  81 SE13      29.90F WCI  15
HULETT           N/A    N/A N/A N/A MISG        N/A
NEWCASTLE      FAIR      27  23  86 E5        29.97S WCI  21

$$
WYZ014>020-022>026-101>103-311600-
CENTRAL WYOMING

CITY           SKY/WX    TMP DP  RH WIND       PRES   REMARKS
BIG PINEY      FAIR      18  14  84 CALM      29.97S
PINEDALE       FAIR      12   5  73 CALM      29.96S
DUBOIS         FAIR      23  -4  30 W6        29.90F WCI  16
LANDER         FAIR      27  21  78 SE6       29.90F WCI  20
RIVERTON       FAIR      26  23  88 CALM      29.91F
CASPER         FAIR      27  23  85 SW9       29.90F WCI  18
DOUGLAS        CLOUDY    28  25  88 E3        29.93F

$$
WYZ021-027>030-104>119-311600-
SOUTHERN WYOMING

CITY           SKY/WX    TMP DP  RH WIND       PRES   REMARKS
EVANSTON       CLOUDY    29  25  85 CALM      29.99R
KEMMERER       FAIR      25  23  93 SW8       29.98F WCI  16
FORT BRIDGER   PTSUNNY   27  27 100 W8        30.01R WCI  18
ROCK SPRINGS   FAIR      25  23  92 W9        29.95R WCI  15
DIXON          LGT SNOW  31  31  96 W6        29.93S WCI  26
RAWLINS        FAIR      29  22  75 CALM      29.91S
SARATOGA       LGT SNOW  28  28 100 NW7       29.91S WCI  21
LARAMIE        FLURRIES  27  25  92 E3        29.87F
CHEYENNE       LGT SNOW  30  25  81 N9        29.89F WCI  22
TORRINGTON     CLOUDY    33  26  75 CALM      29.93F
PINE BLUFFS    CLOUDY    32  27  80 N8        29.91F WCI  25

$$



USA.gov is the U.S. government's official web portal to all federal, state and local government web resources and services.